Location: DARK SKY Beskydy - Park tmavé oblohy, www.darkskybeskydy.cz
(49.4926°N, 18.5016°E)
Time: 08:48:55
(UTC+01:00)

N. Korean satellite - Visible Passes

Search period start: 07 December 2022 00:00
Search period end: 17 December 2022 00:00
Orbit: 421 x 452 km, 97.3° (Epoch: 06 December)

Date Brightness Start Highest point End Pass type
(mag) Time Alt. Az. Time Alt. Az. Time Alt. Az.
07 Dec 9.7 04:05:39 10° ENE 04:07:15 13° E 04:08:49 10° ESE visible
07 Dec 6.5 05:36:45 10° N 05:40:03 49° WNW 05:43:18 10° SSW visible
08 Dec 7.2 04:57:43 10° NNE 05:01:03 52° E 05:04:19 10° S visible
08 Dec 8.2 06:31:26 10° NNW 06:33:09 13° WNW 06:34:51 10° W visible
08 Dec 9.5 17:04:09 10° SW 17:06:40 19° W 17:09:13 10° NW visible
09 Dec 9.2 04:19:23 10° NE 04:21:48 18° E 04:24:11 10° SE visible
09 Dec 7.0 05:51:20 10° N 05:54:24 33° WNW 05:57:26 10° SW visible
09 Dec 7.3 16:24:05 10° S 16:27:25 55° W 16:30:48 10° NNW visible
10 Dec 6.4 05:12:01 10° NNE 05:15:25 80° ESE 05:18:45 10° S visible
10 Dec 9.7 17:19:18 10° WSW 17:21:07 14° W 17:22:55 10° WNW visible
11 Dec 8.6 04:33:17 10° NE 04:36:10 25° E 04:39:00 10° SSE visible
11 Dec 7.5 06:05:50 10° NNW 06:08:35 23° WNW 06:11:17 10° WSW visible
11 Dec 8.2 16:38:32 10° SSW 16:41:42 37° W 16:44:55 10° NNW visible
12 Dec 6.2 05:26:15 10° N 05:29:36 67° WNW 05:32:54 10° SSW visible
13 Dec 7.8 04:47:12 10° NNE 04:50:22 37° E 04:53:28 10° SSE visible
13 Dec 7.9 06:20:21 10° NNW 06:22:36 17° WNW 06:24:48 10° WSW visible
13 Dec 9.0 16:52:59 10° SSW 16:55:52 25° W 16:58:46 10° NW visible
14 Dec 9.6 04:11:31 13° ESE 04:11:31 13° ESE 04:12:36 10° ESE visible
14 Dec 7.4 05:40:23 10° N 05:44:55 28° SW 05:46:47 10° SW visible
15 Dec 8.0 05:01:04 10° NNE 05:06:01 26° S 05:07:38 10° S visible
15 Dec 8.6 06:35:00 10° NW 06:39:25 - WSW 06:35:01 10° NW visible
15 Dec 9.5 17:07:30 10° SW 17:09:55 18° W 17:12:20 10° NW visible
16 Dec 9.4 04:26:52 12° SE 04:26:52 12° SE 04:27:19 10° SE visible
16 Dec 8.7 05:54:28 10° N 06:00:16 11° SW 06:00:23 10° SW visible
16 Dec 7.4 16:27:05 10° S 16:30:23 51° W 16:33:44 10° NNW visible
